Location: Lane
(33.5226°N, 79.8788°W)
Time: 20:38:05
(UTC+00:00)

Explorer 11/Cluster Stage 4 - Pass Details

Date: 05 October 2022
Orbit: 466 x 1247 km, 28.8° (Epoch: 01 December)

Event Time Altitude Azimuth Distance (km) Brightness Sun altitude
Rises 16:50:50 0° 254° (WSW) 4,174 10.4 51.4°
Reaches altitude 10° 16:53:50 10° 251° (WSW) 3,210 9.9 51.4°
Maximum altitude 17:01:51 60° 175° (S) 1,346 10.4 51.5°
Drops below altitude 10° 17:09:05 10° 97° (E) 2,910 9.7 51.6°
Sets 17:11:41 0° 94° (E) 3,765 10.1 51.5°
